[[{"header":{"parameterUnit":"m.s-1","parameterCategory":1,"la1":30.2991,"la2":30.254,"lo1":-89.0895,"lo2":-89.0444,"dy":0.0017,"dx":0.0017,"nx":28,"ny":28,"refTime":"2025-06-12T09:00:00:Z","depth":0,"parameterNumber":2,"parameterNumberName":"U-component_of_WINDS"},"data":[0,0,0,0,0,0,0,0,0,0,0,0,0,0,0,0,0,0,0,0,0,0,0,0,0,0,0,0,0,0,0,0,0,0,0,0,0,0,0,0,0,0,0,0,0,0,0,0,0,0,0,0,0,0,0,0,0,0,-1.3554,-1.3554,0,-1.3623,-1.3624,-1.3625,-1.3652,-1.3652,-1.3652,-1.3651,-1.3723,-1.3725,-1.3727,0,0,0,0,0,0,0,0,0,0,0,0,0,-1.3445,-1.3447,-1.3554,-1.3554,-1.3555,-1.3623,-1.3624,-1.3625,-1.3652,-1.3652,-1.3652,-1.3651,-1.3723,-1.3725,-1.3728,0,0,0,0,0,0,0,0,0,0,0,0,0,-1.3501,-1.3447,-1.3553,-1.3577,-1.358,-1.3623,-1.3624,-1.3625,-1.3652,-1.3652,-1.3652,-1.3651,-1.3722,-1.3725,-1.3728,-1.3753,0,0,-1.3737,-1.3739,0,0,0,0,0,0,0,0,-1.3498,-1.3505,-1.3573,-1.3575,-1.3579,-1.3629,-1.3612,-1.3668,-1.3652,-1.3625,-1.3651,-1.3651,-1.3692,-1.3698,-1.3711,-1.3756,-1.376,-1.3738,-1.374,-1.3741,-1.3742,0,0,0,0,0,0,0,-1.3494,-1.3502,-1.3581,-1.3574,-1.3577,-1.3584,-1.3592,-1.3623,-1.3659,-1.3627,-1.3629,-1.3637,-1.3694,-1.3708,-1.3713,-1.3761,-1.3738,-1.374,-1.3742,-1.3744,-1.3831,-1.3831,0,0,0,0,0,0,-1.3486,-1.3499,-1.3579,-1.3583,-1.3537,-1.3587,-1.3595,-1.3613,-1.3659,-1.3666,-1.3637,-1.3638,-1.3703,-1.371,-1.3716,-1.3749,-1.3741,-1.3744,-1.3746,-1.383,-1.3831,-1.3831,0,0,0,0,0,0,-1.3483,-1.3493,-1.3576,-1.3542,-1.3553,-1.3589,-1.3608,-1.3614,-1.3629,-1.3667,-1.3673,-1.3645,-1.3703,-1.3711,-1.3744,-1.3752,-1.3745,-1.3748,-1.383,-1.383,-1.3831,-1.3814,0,0,0,0,0,0,-1.348,-1.3492,-1.3501,-1.3542,-1.3554,-1.3603,-1.3609,-1.3616,-1.3634,-1.3636,-1.3676,-1.3682,-1.3703,-1.3739,-1.3747,-1.3756,-1.3751,-1.3829,-1.383,-1.3831,-1.3814,-1.3814,-1.3814,0,0,0,0,0,-1.3476,-1.3494,-1.3502,-1.3511,-1.3567,-1.3603,-1.361,-1.3634,-1.3635,-1.3645,-1.3669,-1.3681,-1.3749,-1.3742,-1.3751,-1.3761,-1.3829,-1.383,-1.3831,-1.3814,-1.3814,-1.3814,0,0,0,0,0,0,-1.3454,-1.35,-1.3509,-1.354,-1.3567,-1.3607,-1.3621,-1.3633,-1.3661,-1.3662,-1.369,-1.3699,-1.3729,-1.3748,-1.3739,-1.3788,-1.379,-1.3793,-1.3774,-1.3775,-1.3775,-1.3769,-1.3753,0,0,0,0,0,-1.3453,-1.3477,-1.3516,-1.354,-1.3553,-1.3585,-1.3601,-1.3617,-1.3647,-1.3658,-1.3685,-1.3713,-1.3741,-1.3759,-1.3787,-1.3817,-1.3827,-1.3829,-1.3829,-1.3829,-1.3831,-1.3849,-1.385,-1.3834,-1.3834,-1.3834,0,0,-1.345,-1.3478,-1.3492,-1.3536,-1.3559,-1.3585,-1.3594,-1.3621,-1.364,-1.3663,-1.3695,-1.3715,-1.3749,-1.378,-1.3796,-1.3798,-1.3837,-1.383,-1.3829,-1.3832,-1.385,-1.3851,-1.3853,-1.3835,-1.3835,-1.3835,0,0,-1.3459,-1.3482,-1.3505,-1.3528,-1.3563,-1.3584,-1.3589,-1.3627,-1.3642,-1.3675,-1.3692,-1.3716,-1.3763,-1.3787,-1.3805,-1.3823,-1.3835,-1.3831,-1.3831,-1.3848,-1.3849,-1.3851,-1.3857,-1.3859,-1.3833,-1.3833,-1.3833,0,-1.3451,-1.349,-1.3515,-1.3541,-1.356,-1.3581,-1.3605,-1.3626,-1.3668,-1.3681,-1.3682,-1.3743,-1.3767,-1.3804,-1.3809,-1.3823,-1.383,-1.3827,-1.3847,-1.3849,-1.385,-1.3857,-1.3859,-1.3832,-1.3832,-1.3832,-1.3833,0,-1.3479,-1.3506,-1.352,-1.356,-1.3581,-1.3605,-1.3634,-1.3652,-1.3667,-1.3688,-1.3721,-1.3751,-1.3785,-1.3795,-1.381,-1.3835,-1.3835,-1.3842,-1.3844,-1.3851,-1.3858,-1.386,-1.3831,-1.3832,-1.3832,-1.3832,0,0,-1.3476,-1.3529,-1.3534,-1.3553,-1.3593,-1.3614,-1.364,-1.3674,-1.3689,-1.3717,-1.374,-1.378,-1.3786,-1.3806,-1.3824,-1.3839,-1.3851,-1.3843,-1.3845,-1.3844,-1.3882,-1.3877,-1.3879,-1.386,-1.386,-1.3861,-1.3879,0,-1.349,-1.3536,-1.356,-1.3596,-1.3621,-1.3642,-1.3665,-1.3692,-1.3712,-1.3737,-1.376,-1.3787,-1.3793,-1.3806,-1.3822,-1.3846,-1.3859,-1.3845,-1.3881,-1.3882,-1.3872,-1.3883,-1.3878,-1.3894,-1.3882,-1.3882,-1.3883,0,-1.3513,-1.3541,-1.358,-1.3617,-1.3629,-1.3648,-1.3681,-1.3704,-1.3736,-1.375,-1.3773,-1.379,-1.3818,-1.3818,-1.3858,-1.3847,-1.3864,-1.3878,-1.3879,-1.3883,-1.3883,-1.3888,-1.3899,-1.3902,-1.3887,-1.3887,-1.3887,0,-1.3506,-1.3554,-1.3584,-1.3599,-1.3643,-1.3657,-1.3676,-1.3707,-1.3726,-1.3755,-1.3768,-1.3799,-1.3817,-1.3841,-1.3866,-1.3864,-1.3904,-1.3906,-1.3916,-1.3915,-1.3923,-1.3923,-1.3938,-1.3933,-1.3933,-1.3933,-1.3933,0,-1.352,-1.3543,-1.3581,-1.36,-1.3626,-1.3653,-1.3679,-1.37,-1.3727,-1.375,-1.3771,-1.3792,-1.3824,-1.3849,-1.3869,-1.3899,-1.3906,-1.3918,-1.3923,-1.3917,-1.3915,-1.3928,-1.3927,-1.3934,-1.3934,-1.3934,-1.3934,0,-1.3518,-1.3544,-1.3578,-1.3617,-1.3628,-1.3646,-1.368,-1.3698,-1.372,-1.3748,-1.3757,-1.379,-1.3821,-1.3849,-1.3889,-1.3903,-1.3933,-1.394,-1.3923,-1.3925,-1.3934,-1.3933,-1.3958,-1.3963,-1.3955,-1.3955,-1.3955,0,-1.3525,-1.3543,-1.3584,-1.3601,-1.362,-1.3646,-1.3665,-1.3693,-1.3712,-1.375,-1.3764,-1.3796,-1.3823,-1.3872,-1.39,-1.3931,-1.3939,-1.3945,-1.3944,-1.3936,-1.3939,-1.3938,-1.394,-1.3945,-1.3945,-1.3945,-1.3945,0,-1.3534,-1.3547,-1.3573,-1.3605,-1.3627,-1.3654,-1.3681,-1.3693,-1.3726,-1.3747,-1.3778,-1.3799,-1.3841,-1.3873,-1.3908,-1.3928,-1.3942,-1.3945,-1.3949,-1.3943,-1.3932,-1.3938,-1.3922,-1.3945,-1.3945,-1.3945,-1.3945,-1.3945,-1.3537,-1.3555,-1.3586,-1.3616,-1.3639,-1.3663,-1.3683,-1.3707,-1.3733,-1.3769,-1.3784,-1.3816,-1.3848,-1.3896,-1.3916,-1.3942,-1.3945,-1.395,-1.3952,-1.3953,-1.3952,-1.3928,-1.3948,-1.3949,-1.3949,-1.3949,-1.3949,0,-1.3548,-1.357,-1.3596,-1.3633,-1.3657,-1.3668,-1.3698,-1.3717,-1.3745,-1.3773,-1.3799,-1.3836,-1.3867,-1.3898,-1.3931,-1.3945,-1.3953,-1.3953,-1.3953,-1.3957,-1.3948,-1.3941,-1.3947,-1.3947,-1.3947,-1.3947,-1.3947,-1.3947,-1.3557,-1.3587,-1.3603,-1.3644,-1.3666,-1.3698,-1.3714,-1.3737,-1.376,-1.3799,-1.3825,-1.3845,-1.3875,-1.391,-1.3939,-1.3947,-1.3958,-1.3957,-1.3967,-1.3958,-1.3958,-1.3957,-1.3951,-1.3959,-1.3959,-1.3974,-1.3975,-1.3975]},{"header":{"parameterUnit":"m.s-1","parameterCategory":1,"la1":30.2991,"la2":30.254,"lo1":-89.0895,"lo2":-89.0444,"dy":0.0017,"dx":0.0017,"nx":28,"ny":28,"refTime":"2025-06-12T09:00:00:Z","depth":0,"parameterNumber":3,"parameterNumberName":"V-component_of_WINDS"},"data":[0,0,0,0,0,0,0,0,0,0,0,0,0,0,0,0,0,0,0,0,0,0,0,0,0,0,0,0,0,0,0,0,0,0,0,0,0,0,0,0,0,0,0,0,0,0,0,0,0,0,0,0,0,0,0,0,0,0,6.6153,6.6154,0,6.619,6.619,6.6191,6.6111,6.6109,6.6106,6.6104,6.6138,6.6141,6.6145,0,0,0,0,0,0,0,0,0,0,0,0,0,6.601,6.6013,6.6153,6.6154,6.6154,6.619,6.619,6.6191,6.6112,6.6108,6.6105,6.6102,6.6137,6.6141,6.6145,0,0,0,0,0,0,0,0,0,0,0,0,0,6.6062,6.6014,6.6153,6.6119,6.6116,6.619,6.619,6.6191,6.6112,6.6108,6.6105,6.6101,6.6136,6.6141,6.6146,6.6253,0,0,6.6161,6.6163,0,0,0,0,0,0,0,0,6.6059,6.6067,6.6123,6.6121,6.6119,6.6142,6.6152,6.6212,6.6113,6.6114,6.6104,6.6099,6.6142,6.6147,6.6162,6.6254,6.6256,6.6161,6.6164,6.6166,6.6168,0,0,0,0,0,0,0,6.6056,6.6065,6.6167,6.6124,6.6121,6.61,6.6103,6.6163,6.6149,6.6113,6.6108,6.6113,6.614,6.6157,6.6162,6.6256,6.6161,6.6165,6.6168,6.617,6.6436,6.644,0,0,0,0,0,0,6.6057,6.6063,6.6166,6.6169,6.6079,6.6106,6.611,6.6138,6.6148,6.6146,6.6117,6.6109,6.6151,6.6156,6.6163,6.6287,6.6166,6.6171,6.6174,6.6432,6.6437,6.6441,0,0,0,0,0,0,6.6054,6.6067,6.6165,6.6114,6.6125,6.6113,6.6146,6.6141,6.6158,6.6151,6.6147,6.6137,6.6148,6.6156,6.6231,6.6287,6.6173,6.6178,6.6427,6.6433,6.6439,6.6537,0,0,0,0,0,0,6.6051,6.6067,6.6108,6.6116,6.6128,6.6233,6.6149,6.6145,6.6167,6.6158,6.6169,6.6167,6.6145,6.6224,6.6236,6.6292,6.6181,6.6422,6.643,6.6437,6.6529,6.6546,6.656,0,0,0,0,0,6.6046,6.6134,6.6111,6.6124,6.618,6.6237,6.6244,6.6218,6.6172,6.6213,6.6208,6.6166,6.628,6.6232,6.6245,6.6303,6.6418,6.6428,6.6437,6.6522,6.6542,6.656,0,0,0,0,0,0,6.6133,6.6135,6.6109,6.6203,6.622,6.6223,6.6274,6.6242,6.6272,6.6262,6.6229,6.6232,6.6312,6.6315,6.6263,6.6406,6.6341,6.6353,6.6401,6.6421,6.6436,6.6433,6.6186,0,0,0,0,0,6.6163,6.6211,6.6209,6.6292,6.6302,6.6287,6.6311,6.629,6.6306,6.6313,6.6313,6.633,6.6369,6.6395,6.6431,6.6529,6.6529,6.6576,6.6592,6.6605,6.6615,6.6664,6.6684,6.6472,6.6471,6.6471,0,0,6.6226,6.6233,6.6265,6.631,6.6321,6.6368,6.6294,6.6348,6.6382,6.6321,6.6391,6.6392,6.6408,6.6495,6.6533,6.65,6.6674,6.6616,6.6627,6.663,6.6676,6.6696,6.6714,6.6478,6.6477,6.6476,0,0,6.6364,6.6376,6.6445,6.6457,6.6475,6.6464,6.6481,6.6489,6.6487,6.6558,6.6512,6.6552,6.6621,6.6633,6.6649,6.6791,6.6753,6.6804,6.6885,6.6934,6.6951,6.6965,6.7013,6.7031,6.6814,6.6814,6.6815,0,6.644,6.6511,6.6484,6.6541,6.6561,6.6508,6.6576,6.659,6.6619,6.6633,6.6596,6.668,6.6687,6.6774,6.6809,6.6824,6.684,6.6801,6.6951,6.6965,6.6978,6.7024,6.7042,6.682,6.682,6.6819,6.6818,0,6.6601,6.6651,6.6705,6.6734,6.676,6.6823,6.6803,6.6833,6.681,6.6802,6.6873,6.688,6.6915,6.6935,6.6913,6.7019,6.6997,6.6957,6.6889,6.7005,6.7047,6.7064,6.6829,6.6826,6.6825,6.6823,0,0,6.6795,6.6808,6.6827,6.6839,6.6854,6.6892,6.6951,6.6986,6.7011,6.7033,6.708,6.7139,6.71,6.7118,6.7097,6.714,6.7249,6.7093,6.7093,6.712,6.7363,6.7392,6.7412,6.7225,6.7228,6.7231,6.736,0,6.6929,6.7032,6.7009,6.7109,6.7153,6.7104,6.7155,6.7169,6.7164,6.7199,6.7193,6.7234,6.7182,6.7192,6.7233,6.7227,6.7297,6.7218,6.7266,6.7268,6.7261,6.7435,6.7466,6.7588,6.7377,6.738,6.7382,0,6.71,6.7128,6.7233,6.7239,6.7257,6.7304,6.7332,6.7368,6.7383,6.7375,6.7395,6.7365,6.7422,6.7356,6.7433,6.7379,6.7398,6.7398,6.7402,6.7403,6.733,6.7438,6.7627,6.7644,6.7408,6.7406,6.7404,0,6.7227,6.7291,6.7361,6.7373,6.7383,6.7417,6.7422,6.7433,6.7455,6.748,6.7493,6.7525,6.7542,6.7567,6.7545,6.75,6.7624,6.7557,6.7618,6.7618,6.7644,6.7642,6.7836,6.7661,6.7661,6.766,6.766,0,6.7378,6.7444,6.7418,6.7461,6.7532,6.7505,6.7575,6.7575,6.7585,6.7626,6.7585,6.7624,6.7595,6.7631,6.7615,6.7679,6.7688,6.7682,6.7676,6.7684,6.7684,6.7694,6.7684,6.7665,6.7664,6.7663,6.7662,0,6.7532,6.7517,6.759,6.7594,6.7596,6.7648,6.765,6.7689,6.7681,6.7733,6.7743,6.773,6.777,6.7752,6.7794,6.7783,6.7865,6.7849,6.786,6.7855,6.7915,6.7909,6.8119,6.8144,6.7956,6.7958,6.796,0,6.7628,6.7677,6.7686,6.771,6.7719,6.7759,6.7781,6.7755,6.778,6.7799,6.7835,6.7872,6.79,6.7966,6.7959,6.7991,6.7974,6.8045,6.7978,6.7984,6.7972,6.7968,6.7971,6.8058,6.806,6.8062,6.8064,0,6.7799,6.7789,6.7823,6.7854,6.7881,6.7904,6.7924,6.7946,6.7921,6.795,6.799,6.8012,6.8055,6.8091,6.8118,6.8123,6.8088,6.8085,6.81,6.8107,6.811,6.8107,6.7894,6.808,6.8078,6.8077,6.8076,6.8075,6.7925,6.7965,6.7977,6.8015,6.8027,6.8046,6.8082,6.8078,6.8112,6.8144,6.8127,6.8174,6.8185,6.8219,6.8228,6.8263,6.8234,6.8257,6.8262,6.8268,6.8274,6.8107,6.8268,6.8268,6.8267,6.8267,6.8266,0,6.8092,6.8097,6.8132,6.816,6.819,6.8157,6.8176,6.8202,6.8244,6.8258,6.8286,6.8332,6.8366,6.8362,6.8394,6.8422,6.8407,6.8431,6.8427,6.8429,6.8299,6.8282,6.8443,6.8443,6.8443,6.8443,6.8443,6.8443,6.8182,6.8247,6.8239,6.8309,6.8313,6.8359,6.8373,6.8389,6.84,6.8452,6.8481,6.8479,6.8485,6.8516,6.8546,6.8543,6.8556,6.8585,6.8577,6.8456,6.8438,6.8421,6.8404,6.8588,6.8589,6.8702,6.8703,6.8704]}]]